EHI
8 8 10 13 14 13 11 10 8 5 2 2 3 3 4 7 9 9 8 5 2 0 0 0 0 0 0 0 0 0 0 0 0 0 0 0 0 0
9 9 10 12 13 14 13 12 9 6 3 3 3 4 6 8 8 9 8 7 5 2 0 0 0 0 0 0 0 0 0 0 0 0 0 0 0 0
11 11 12 13 14 15 16 15 13 9 5 3 3 5 9 11 10 10 10 11 10 5 1 0 0 0 0 0 0 0 0 0 0 0 0 0 0 0
11 12 14 14 15 16 16 17 15 11 7 4 3 5 9 12 11 11 12 12 11 7 3 1 0 0 0 0 0 0 0 0 0 0 0 0 0 0
13 13 14 15 15 15 15 15 13 11 9 6 6 6 8 11 11 11 11 11 10 8 5 2 0 0 0 0 0 0 0 0 0 0 0 0 0 0
15 15 13 13 12 13 14 13 12 11 10 9 8 8 10 12 11 10 10 10 10 9 8 5 2 1 1 0 0 0 0 0 0 0 0 0 0 0
17 16 13 11 9 10 11 13 12 11 10 10 9 10 12 13 12 10 10 10 10 10 9 8 5 4 3 1 0 0 0 0 0 0 0 0 0 0
19 18 15 13 10 9 10 10 9 9 9 9 9 11 13 14 13 11 10 10 10 10 10 9 7 6 5 3 1 0 0 0 0 0 0 0 0 0
20 20 18 15 14 13 10 8 8 9 9 10 11 12 14 15 14 12 11 11 11 12 12 10 8 8 8 5 1 0 0 0 0 0 0 0 0 0
19 21 20 18 16 15 13 11 11 11 10 10 11 11 11 11 12 12 13 13 13 13 13 10 9 9 8 5 2 0 0 0 0 0 0 0 0 0
19 19 19 17 15 13 13 14 15 14 10 9 8 7 6 5 6 10 13 13 13 14 13 11 10 9 8 5 2 0 0 0 0 0 0 0 0 0
18 17 16 14 11 10 12 15 16 14 10 7 7 6 5 5 6 9 12 13 13 13 12 11 10 9 7 5 2 0 0 0 0 0 0 0 0 0
17 16 14 11 6 5 9 13 13 10 9 9 10 9 8 8 9 10 12 13 13 13 13 12 9 8 8 5 2 1 1 0 0 0 0 0 0 0
14 14 12 7 2 2 5 7 7 6 8 10 11 11 10 9 10 12 13 13 13 13 13 12 10 9 10 7 3 1 1 1 1 0 0 0 0 0
10 9 6 3 1 1 3 3 5 7 8 9 11 10 10 10 11 12 12 11 11 11 12 12 11 11 11 9 4 1 1 2 2 1 0 0 0 0
6 6 5 4 3 3 4 4 6 8 8 9 10 10 10 11 12 11 10 9 9 10 10 12 12 11 10 9 4 2 2 3 2 1 0 0 0 0
6 7 8 8 7 7 8 8 8 8 8 9 9 10 10 10 10 9 8 7 7 7 8 11 12 11 9 7 4 2 2 3 3 2 1 0 0 0
7 8 10 10 10 9 9 9 9 8 8 8 8 9 9 8 7 7 6 5 4 5 6 10 11 9 6 4 2 1 1 3 4 4 3 1 1 1
7 8 9 9 10 10 10 10 9 9 8 7 7 7 7 6 6 5 4 3 3 4 5 9 9 6 2 1 0 0 1 2 3 4 4 3 2 2
8 9 10 10 10 10 10 10 10 10 9 7 6 5 4 4 5 5 4 3 3 4 5 7 7 5 2 2 1 0 0 1 2 3 3 3 2 2
9 10 10 10 10 10 10 10 10 10 8 6 5 4 3 2 2 4 5 4 4 5 5 6 6 6 6 4 2 1 1 1 1 2 2 1 1 1
9 9 9 9 9 11 10 9 9 8 6 3 2 2 1 1 1 3 4 5 5 6 5 5 6 6 6 4 2 1 1 2 2 1 0 0 1 1
8 8 8 8 8 10 10 9 8 7 4 1 0 0 0 1 2 3 4 5 6 6 5 5 6 6 4 2 2 2 1 2 2 1 0 0 1 0
Wind_Speed
4 4 4 3 4 4 4 4 5 5 4 3 3 3 3 3 3 4 5 6 7 7 8 8 8 7 7 8 8 8 8 8 8 8 8 8 8 8
3 4 4 4 3 4 4 4 5 5 5 3 3 3 2 4 4 5 5 6 9 8 8 8 8 8 8 8 8 8 8 9 9 8 8 8 8 7
4 4 4 5 4 4 4 4 5 5 6 5 4 2 3 5 4 5 6 6 5 10 9 8 8 8 8 9 9 9 9 9 9 9 9 8 8 8
5 5 6 5 5 5 5 5 5 5 6 7 5 4 4 4 4 6 5 5 5 7 10 9 8 8 9 9 9 9 9 9 9 9 9 10 9 9
5 6 6 6 6 5 6 6 5 5 5 6 6 4 4 3 4 5 6 4 6 5 9 10 10 9 9 10 10 10 9 9 9 9 9 9 9 9
5 6 6 6 6 6 6 6 6 6 6 6 6 5 4 3 4 5 5 4 5 5 4 5 8 11 11 11 11 10 10 9 9 9 9 9 8 8
6 6 5 5 5 6 6 6 6 6 6 6 6 5 4 3 4 4 5 4 5 5 4 4 5 6 7 10 11 10 10 10 10 9 9 9 9 8
5 6 6 6 6 8 8 8 8 7 7 6 6 6 5 5 4 5 5 5 5 3 4 5 4 5 5 5 7 10 11 11 10 10 10 9 9 9
6 6 6 5 5 7 7 9 9 9 9 8 8 7 7 5 5 7 6 6 6 4 4 5 4 5 4 3 7 9 10 11 11 11 11 10 9 9
6 6 7 6 5 6 8 7 7 7 8 8 8 8 7 5 6 7 7 7 7 5 5 5 4 4 4 3 6 8 9 11 11 11 11 10 10 9
7 6 7 6 4 5 8 8 7 6 6 7 8 7 7 6 6 6 6 6 6 5 4 5 5 4 4 4 4 8 9 10 11 11 11 11 10 10
6 6 5 5 4 5 7 7 7 7 6 5 5 6 7 7 9 8 7 6 6 5 4 4 5 4 4 4 3 4 6 8 11 11 12 12 11 9
6 5 3 3 5 5 7 7 7 7 7 7 6 5 5 5 6 6 6 6 7 6 4 4 5 5 5 4 3 3 4 4 5 7 10 12 12 11
7 6 3 2 5 7 7 7 8 8 7 6 5 5 5 5 4 5 5 6 6 7 6 5 5 5 5 5 4 4 3 4 4 4 5 8 11 12
6 6 6 6 7 7 8 7 7 6 5 6 5 5 4 4 4 4 5 5 6 7 6 6 6 5 6 6 5 4 4 4 4 4 5 5 6 7
7 7 9 10 9 7 5 5 5 5 5 5 5 5 4 4 4 4 4 4 4 5 5 6 6 7 6 6 5 5 4 4 4 4 4 4 5 5
6 6 5 4 4 4 4 4 4 4 5 5 5 4 4 4 4 4 4 4 5 5 4 4 4 4 5 5 5 5 5 4 4 3 4 4 5 5
6 6 5 5 5 5 5 5 4 4 5 5 4 4 4 4 4 4 4 4 5 5 5 4 3 3 3 3 4 5 4 4 3 3 4 5 5 5
6 6 5 5 5 5 5 5 5 4 4 5 5 4 4 4 4 4 4 4 5 5 5 4 4 4 5 5 3 4 5 4 4 4 5 5 5 4
5 5 5 5 4 5 5 5 5 4 4 4 5 4 4 4 4 4 4 5 5 5 5 4 4 4 5 5 4 4 6 6 4 4 4 4 4 2
5 4 4 4 4 4 4 5 5 4 4 4 4 4 4 5 5 5 5 5 6 6 6 5 4 5 5 4 4 4 3 4 4 4 4 4 4 5
4 4 4 4 4 4 4 4 4 4 4 4 4 4 4 5 5 6 6 5 5 5 6 5 4 4 5 5 5 4 4 3 3 4 3 3 4 4
4 4 3 4 4 3 4 4 5 4 4 4 4 4 5 5 4 5 5 5 5 5 5 5 4 4 5 5 5 4 5 4 3 3 2 2 3 3
Wind_Direction
265 260 264 267 265 266 261 258 269 279 278 253 242 222 236 249 197 239 246 187 200 215 218 219 215 212 214 216 217 216 213 211 212 213 213 212 212 213
267 275 272 271 265 260 261 262 262 271 280 279 266 265 257 264 218 244 247 190 203 205 207 213 215 214 214 212 212 214 210 208 208 209 209 210 210 212
271 266 266 274 273 272 265 261 261 263 268 276 277 272 250 258 257 254 247 237 217 193 199 209 216 220 221 218 214 213 210 209 209 207 207 208 207 210
270 272 272 268 266 269 272 267 267 266 264 270 272 265 255 245 250 257 253 246 249 184 191 205 214 219 221 220 217 213 211 209 207 207 209 209 209 211
268 271 274 276 272 272 269 271 269 264 263 265 268 266 265 253 251 252 254 250 253 208 192 201 209 216 219 220 215 211 210 209 209 208 209 210 210 209
268 268 270 272 273 273 264 263 266 268 262 261 263 262 254 250 248 255 258 246 252 252 228 212 203 208 215 216 212 209 206 207 209 209 209 208 208 206
268 269 264 266 273 273 277 275 268 264 265 263 263 264 261 260 260 262 264 265 257 250 243 232 216 219 210 209 209 207 206 204 204 206 205 202 201 202
272 272 266 253 256 244 249 259 263 262 269 270 269 266 263 260 266 264 265 267 270 249 248 252 241 238 226 218 189 192 200 203 203 201 200 199 201 202
273 270 274 274 265 270 250 239 244 242 247 259 268 271 271 265 265 264 257 262 269 267 252 259 250 245 239 205 173 188 197 201 203 203 201 200 199 199
267 267 269 275 275 279 276 269 264 252 242 243 254 262 268 274 264 264 264 259 259 252 235 253 251 250 248 222 176 188 197 200 202 203 202 201 200 199
268 265 265 269 281 279 269 269 271 268 246 239 243 249 254 254 255 259 258 256 258 254 231 249 260 258 253 234 190 185 195 200 202 203 202 199 199 199
266 259 240 257 272 268 269 271 271 275 276 267 245 237 241 240 230 238 249 255 261 262 230 234 254 258 258 242 220 206 205 200 201 205 205 204 198 205
281 277 271 215 250 259 265 272 271 273 270 264 256 250 245 243 242 242 248 253 260 261 254 238 254 253 254 260 254 238 227 219 206 205 205 204 200 209
282 287 294 245 253 256 257 266 268 265 261 259 257 253 252 253 254 255 250 253 262 269 269 255 250 250 248 254 256 246 234 231 224 216 209 190 199 208
278 285 283 264 255 249 237 244 252 254 262 263 262 261 263 265 261 251 251 248 252 256 253 245 248 253 249 251 252 249 250 244 236 225 211 202 201 196
264 260 242 241 243 259 254 236 246 259 264 267 274 277 273 263 255 256 258 253 256 256 245 239 240 246 245 248 252 249 244 244 239 232 222 215 209 204
293 275 275 270 263 259 259 262 265 262 257 262 266 267 265 263 260 256 256 259 258 259 253 246 244 240 241 247 246 245 246 245 240 227 220 226 221 214
274 271 272 273 277 277 271 267 263 262 264 265 263 260 260 260 262 259 251 253 258 260 260 260 257 251 251 246 245 248 247 247 239 226 230 232 229 217
254 265 269 274 276 275 275 273 271 270 268 264 260 258 258 258 257 256 256 255 257 262 265 262 251 247 253 259 247 228 250 249 240 233 229 234 238 228
256 264 268 271 273 276 278 279 277 273 265 264 264 263 260 260 258 257 258 262 267 268 266 261 256 257 258 262 264 253 235 245 243 239 238 238 243 211
275 278 280 280 277 275 279 280 276 270 272 272 270 267 262 260 259 257 259 260 264 267 268 268 272 263 265 259 251 247 237 226 242 250 247 238 231 224
288 289 290 290 286 284 281 280 279 271 266 262 267 266 261 261 263 262 262 261 260 265 274 278 272 259 257 253 253 254 259 248 212 212 239 259 254 241
301 299 294 289 292 293 287 283 282 280 277 275 271 266 264 263 266 266 266 268 270 270 276 278 274 264 259 254 253 254 252 251 234 224 224 188 180 190